| time (UTC) | temp F | wind direction | speed MPH | gust MPH | rain 1hr in | rain 24hr in | rain mn in | humidity % | barometer mb |
| 20260509091628 | 75 | 0 | 0.0 | 0.0 | 0.00 | 0.05 | 0.00 | 99 | 1005.2 |
| 20260509090729 | 75 | 0 | 0.0 | 0.0 | 0.00 | 0.05 | 0.00 | 99 | 1005.1 |
| 20260509085828 | 75 | 0 | 0.0 | 0.0 | 0.00 | 0.05 | 0.00 | 99 | 1005.1 |
| 20260509084029 | 75 | 0 | 0.0 | 0.0 | 0.00 | 0.05 | 0.00 | 99 | 1005.0 |
| 20260509083128 | 75 | 0 | 0.0 | 0.0 | 0.00 | 0.05 | 0.00 | 99 | 1005.0 |
| 20260509082228 | 75 | 0 | 0.0 | 0.0 | 0.00 | 0.05 | 0.00 | 99 | 1005.2 |
| 20260509081329 | 75 | 0 | 0.0 | 0.0 | 0.00 | 0.05 | 0.00 | 99 | 1005.2 |
| 20260509080428 | 75 | 0 | 0.0 | 0.0 | 0.00 | 0.05 | 0.00 | 99 | 1005.0 |
| 20260509075528 | 75 | 0 | 0.0 | 0.0 | 0.00 | 0.05 | 0.00 | 99 | 1005.2 |
| 20260509073728 | 75 | 0 | 0.0 | 0.0 | 0.00 | 0.05 | 0.00 | 98 | 1005.4 |
| 20260509072829 | 75 | 0 | 0.0 | 0.0 | 0.00 | 0.05 | 0.00 | 98 | 1005.4 |
| 20260509071028 | 76 | 0 | 0.0 | 0.0 | 0.00 | 0.05 | 0.00 | 98 | 1005.7 |
| 20260509070128 | 76 | 0 | 0.0 | 0.0 | 0.00 | 0.05 | 0.00 | 98 | 1005.7 |
| 20260509065229 | 76 | 0 | 0.0 | 0.0 | 0.00 | 0.05 | 0.00 | 98 | 1005.5 |
| 20260509062528 | 76 | 0 | 0.0 | 0.0 | 0.00 | 0.05 | 0.00 | 98 | 1005.7 |
| 20260509061628 | 76 | 0 | 0.0 | 0.0 | 0.00 | 0.05 | 0.00 | 98 | 1005.7 |
| 20260509055828 | 76 | 0 | 0.0 | 0.0 | 0.00 | 0.05 | 0.00 | 98 | 1005.9 |
| 20260509054928 | 76 | 0 | 0.0 | 0.0 | 0.00 | 0.05 | 0.00 | 98 | 1005.9 |
| 20260509054029 | 75 | 0 | 0.0 | 0.0 | 0.00 | 0.05 | 0.00 | 98 | 1006.0 |
| 20260509053128 | 75 | 0 | 0.0 | 0.0 | 0.00 | 0.05 | 0.00 | 98 | 1006.0 |
| 20260509052228 | 75 | 0 | 0.0 | 0.0 | 0.00 | 0.05 | 0.00 | 98 | 1005.9 |
| 20260509051328 | 75 | 0 | 0.0 | 0.0 | 0.00 | 0.05 | 0.00 | 98 | 1005.9 |
| 20260509050428 | 75 | 0 | 0.0 | 0.0 | 0.00 | 0.05 | 0.00 | 98 | 1006.0 |
| 20260509045528 | 75 | 0 | 0.0 | 0.0 | 0.00 | 0.05 | 0.05 | 97 | 1006.0 |
| 20260509044628 | 75 | 0 | 0.0 | 0.0 | 0.00 | 0.05 | 0.05 | 97 | 1006.0 |
| 20260509043728 | 75 | 0 | 0.0 | 0.0 | 0.00 | 0.05 | 0.05 | 97 | 1006.0 |
| 20260509042828 | 75 | 0 | 0.0 | 0.0 | 0.00 | 0.05 | 0.05 | 97 | 1006.0 |
| 20260509041928 | 75 | 0 | 0.0 | 0.0 | 0.00 | 0.05 | 0.05 | 97 | 1006.0 |
| 20260509041028 | 75 | 0 | 0.0 | 0.0 | 0.00 | 0.05 | 0.05 | 97 | 1005.8 |
| 20260509040128 | 75 | 0 | 0.0 | 0.0 | 0.00 | 0.05 | 0.05 | 97 | 1005.8 |
| 20260509035228 | 75 | 0 | 0.0 | 0.0 | 0.00 | 0.05 | 0.05 | 97 | 1005.6 |
| 20260509034328 | 75 | 0 | 0.0 | 0.0 | 0.00 | 0.05 | 0.05 | 97 | 1005.6 |
| 20260509033428 | 75 | 0 | 0.0 | 0.0 | 0.00 | 0.05 | 0.05 | 97 | 1005.5 |
| 20260509032528 | 74 | 0 | 0.0 | 0.0 | 0.00 | 0.05 | 0.05 | 97 | 1005.5 |
| 20260509031628 | 74 | 0 | 0.0 | 0.0 | 0.00 | 0.05 | 0.05 | 97 | 1005.5 |
| 20260509030728 | 74 | 0 | 0.0 | 0.0 | 0.00 | 0.05 | 0.05 | 97 | 1005.5 |
| 20260509024028 | 74 | 0 | 0.0 | 0.0 | 0.00 | 0.05 | 0.05 | 97 | 1005.4 |
| 20260509023129 | 74 | 0 | 0.0 | 0.0 | 0.00 | 0.05 | 0.05 | 97 | 1005.4 |
| 20260509022228 | 74 | 81 | 1.0 | 5.0 | 0.00 | 0.05 | 0.05 | 97 | 1004.9 |
| 20260509021328 | 74 | 80 | 0.0 | 6.0 | 0.00 | 0.05 | 0.05 | 97 | 1004.9 |
| 20260509020428 | 74 | 0 | 0.0 | 0.0 | 0.00 | 0.05 | 0.05 | 97 | 1004.9 |
| 20260509015528 | 74 | 0 | 0.0 | 0.0 | 0.00 | 0.05 | 0.05 | 97 | 1004.7 |
| 20260509013728 | 74 | 0 | 0.0 | 0.0 | 0.00 | 0.05 | 0.05 | 96 | 1004.9 |
| 20260509012828 | 74 | 0 | 0.0 | 0.0 | 0.00 | 0.05 | 0.05 | 96 | 1004.9 |
| 20260509011928 | 74 | 0 | 0.0 | 0.0 | 0.00 | 0.05 | 0.05 | 96 | 1004.9 |
| 20260509003428 | 74 | 85 | 1.0 | 7.0 | 0.00 | 0.05 | 0.05 | 96 | 1004.7 |
| 20260509001628 | 74 | 0 | 0.0 | 0.0 | 0.00 | 0.05 | 0.05 | 96 | 1004.5 |
| 20260509000728 | 74 | 0 | 0.0 | 0.0 | 0.00 | 0.05 | 0.05 | 96 | 1004.6 |
| 20260508235828 | 74 | 0 | 0.0 | 0.0 | 0.00 | 0.05 | 0.05 | 97 | 1004.6 |
| 20260508234928 | 74 | 0 | 0.0 | 0.0 | 0.00 | 0.05 | 0.05 | 97 | 1004.9 |
| 20260508233128 | 74 | 0 | 0.0 | 0.0 | 0.00 | 0.05 | 0.05 | 97 | 1005.2 |
| 20260508232228 | 74 | 0 | 0.0 | 0.0 | 0.00 | 0.05 | 0.05 | 97 | 1004.9 |
| 20260508231329 | 74 | 0 | 0.0 | 0.0 | 0.00 | 0.05 | 0.05 | 97 | 1004.9 |
| 20260508230427 | 74 | 0 | 0.0 | 0.0 | 0.00 | 0.05 | 0.05 | 97 | 1004.9 |
| 20260508225528 | 74 | 0 | 0.0 | 0.0 | 0.00 | 0.05 | 0.05 | 97 | 1004.9 |
| 20260508224628 | 74 | 0 | 0.0 | 0.0 | 0.00 | 0.05 | 0.05 | 97 | 1004.9 |
| 20260508223728 | 73 | 0 | 0.0 | 0.0 | 0.00 | 0.05 | 0.05 | 97 | 1004.9 |
| 20260508222829 | 73 | 0 | 0.0 | 0.0 | 0.00 | 0.05 | 0.05 | 97 | 1004.9 |
| 20260508221929 | 73 | 0 | 0.0 | 0.0 | 0.00 | 0.05 | 0.05 | 98 | 1005.0 |
| 20260508221028 | 73 | 0 | 0.0 | 0.0 | 0.00 | 0.05 | 0.05 | 98 | 1004.9 |
| 20260508220127 | 73 | 0 | 0.0 | 0.0 | 0.00 | 0.05 | 0.05 | 99 | 1004.9 |
| 20260508215229 | 73 | 0 | 0.0 | 0.0 | 0.00 | 0.05 | 0.05 | 99 | 1005.2 |
| 20260508214328 | 73 | 0 | 0.0 | 0.0 | 0.00 | 0.05 | 0.05 | 99 | 1005.2 |
| 20260508213428 | 73 | 0 | 0.0 | 0.0 | 0.00 | 0.05 | 0.05 | 99 | 1005.4 |
| 20260508212528 | 72 | 0 | 0.0 | 0.0 | 0.00 | 0.05 | 0.05 | 99 | 1005.5 |
| 20260508211628 | 72 | 0 | 0.0 | 0.0 | 0.00 | 0.05 | 0.05 | 99 | 1005.5 |
| 20260508210728 | 72 | 0 | 0.0 | 0.0 | 0.00 | 0.05 | 0.05 | 99 | 1005.4 |
| 20260508205829 | 72 | 0 | 0.0 | 0.0 | 0.01 | 0.05 | 0.05 | 99 | 1005.4 |
| 20260508204927 | 72 | 0 | 0.0 | 0.0 | 0.01 | 0.05 | 0.05 | 99 | 1005.6 |
| 20260508204027 | 72 | 0 | 0.0 | 0.0 | 0.01 | 0.05 | 0.05 | 99 | 1005.6 |
| 20260508203127 | 72 | 0 | 0.0 | 0.0 | 0.01 | 0.05 | 0.05 | 99 | 1005.6 |
| 20260508202227 | 71 | 0 | 0.0 | 0.0 | 0.01 | 0.05 | 0.05 | 99 | 1005.9 |
| 20260508201328 | 71 | 0 | 0.0 | 0.0 | 0.01 | 0.05 | 0.05 | 99 | 1005.9 |
| 20260508195528 | 71 | 0 | 0.0 | 0.0 | 0.00 | 0.04 | 0.04 | 99 | 1006.5 |
| 20260508194628 | 71 | 0 | 0.0 | 0.0 | 0.00 | 0.04 | 0.04 | 99 | 1006.5 |
| 20260508192828 | 70 | 76 | 0.0 | 6.0 | 0.00 | 0.04 | 0.04 | 99 | 1006.8 |
| 20260508191928 | 71 | 75 | 0.0 | 6.0 | 0.00 | 0.04 | 0.04 | 99 | 1006.7 |
| 20260508191027 | 70 | 0 | 0.0 | 0.0 | 0.00 | 0.04 | 0.04 | 99 | 1006.7 |
| 20260508185227 | 70 | 0 | 0.0 | 0.0 | 0.03 | 0.04 | 0.04 | 99 | 1006.8 |
| 20260508184329 | 70 | 0 | 0.0 | 0.0 | 0.03 | 0.04 | 0.04 | 99 | 1006.8 |
| 20260508183428 | 70 | 0 | 0.0 | 0.0 | 0.03 | 0.04 | 0.04 | 98 | 1006.9 |
| 20260508182529 | 70 | 0 | 0.0 | 0.0 | 0.03 | 0.04 | 0.04 | 99 | 1007.0 |
| 20260508181628 | 70 | 0 | 0.0 | 0.0 | 0.03 | 0.04 | 0.04 | 99 | 1007.0 |
| 20260508180729 | 69 | 0 | 0.0 | 0.0 | 0.03 | 0.04 | 0.04 | 98 | 1007.4 |
| 20260508175828 | 69 | 0 | 0.0 | 0.0 | 0.01 | 0.02 | 0.02 | 98 | 1007.4 |
| 20260508174927 | 69 | 0 | 0.0 | 0.0 | 0.00 | 0.01 | 0.01 | 98 | 1007.6 |
| 20260508174029 | 69 | 0 | 0.0 | 0.0 | 0.00 | 0.01 | 0.01 | 98 | 1007.6 |
| 20260508173127 | 68 | 0 | 0.0 | 0.0 | 0.00 | 0.01 | 0.01 | 98 | 1007.6 |
| 20260508170428 | 68 | 0 | 0.0 | 0.0 | 0.00 | 0.01 | 0.01 | 97 | 1008.0 |
| 20260508165528 | 68 | 0 | 0.0 | 0.0 | 0.00 | 0.01 | 0.01 | 97 | 1008.1 |
| 20260508163727 | 68 | 55 | 2.0 | 7.0 | 0.00 | 0.01 | 0.01 | 96 | 1008.2 |
| 20260508162827 | 68 | 57 | 2.0 | 9.0 | 0.00 | 0.01 | 0.01 | 96 | 1008.2 |
| 20260508161028 | 68 | 21 | 0.0 | 5.0 | 0.01 | 0.01 | 0.01 | 96 | 1009.0 |
| 20260508160128 | 68 | 43 | 1.0 | 5.0 | 0.01 | 0.01 | 0.01 | 95 | 1009.0 |
| 20260508155227 | 68 | 44 | 1.0 | 6.0 | 0.01 | 0.01 | 0.01 | 95 | 1009.0 |
| 20260508154327 | 68 | 34 | 1.0 | 7.0 | 0.01 | 0.01 | 0.01 | 95 | 1009.0 |
| 20260508153427 | 69 | 29 | 1.0 | 7.0 | 0.01 | 0.01 | 0.01 | 95 | 1008.6 |
| 20260508152527 | 69 | 30 | 1.0 | 8.0 | 0.01 | 0.01 | 0.01 | 94 | 1008.6 |
| 20260508151627 | 69 | 18 | 3.0 | 10.0 | 0.00 | 0.00 | 0.00 | 93 | 1008.6 |
| 20260508150727 | 69 | 11 | 2.0 | 10.0 | 0.00 | 0.00 | 0.00 | 93 | 1008.5 |
| 20260508145828 | 69 | 65 | 2.0 | 8.0 | 0.00 | 0.00 | 0.00 | 93 | 1008.5 |
| 20260508144027 | 69 | 31 | 1.0 | 10.0 | 0.00 | 0.00 | 0.00 | 92 | 1009.0 |
| 20260508143127 | 69 | 0 | 0.0 | 0.0 | 0.00 | 0.00 | 0.00 | 91 | 1009.0 |
| 20260508142227 | 69 | 0 | 0.0 | 0.0 | 0.00 | 0.00 | 0.00 | 91 | 1008.8 |
| 20260508141328 | 69 | 0 | 0.0 | 0.0 | 0.00 | 0.00 | 0.00 | 91 | 1008.8 |
| 20260508140427 | 69 | 49 | 0.0 | 3.0 | 0.00 | 0.00 | 0.00 | 91 | 1008.7 |
| 20260508135527 | 69 | 32 | 0.0 | 4.0 | 0.00 | 0.00 | 0.00 | 91 | 1008.7 |
| 20260508134627 | 69 | 0 | 0.0 | 0.0 | 0.00 | 0.00 | 0.00 | 90 | 1008.7 |
| 20260508133727 | 69 | 0 | 0.0 | 0.0 | 0.00 | 0.00 | 0.00 | 91 | 1008.7 |
| 20260508132827 | 69 | 26 | 1.0 | 6.0 | 0.00 | 0.00 | 0.00 | 92 | 1008.7 |
| 20260508131927 | 69 | 25 | 1.0 | 5.0 | 0.00 | 0.00 | 0.00 | 91 | 1008.8 |
| 20260508131028 | 69 | 26 | 0.0 | 5.0 | 0.00 | 0.00 | 0.00 | 91 | 1008.9 |
| 20260508125227 | 69 | 26 | 1.0 | 7.0 | 0.00 | 0.00 | 0.00 | 92 | 1008.7 |
| 20260508124328 | 69 | 25 | 1.0 | 7.0 | 0.00 | 0.00 | 0.00 | 92 | 1008.7 |
| 20260508123427 | 68 | 25 | 0.0 | 4.0 | 0.00 | 0.00 | 0.00 | 92 | 1008.6 |
| 20260508122527 | 68 | 0 | 0.0 | 0.0 | 0.00 | 0.00 | 0.00 | 92 | 1008.9 |
| 20260508121627 | 68 | 1 | 0.0 | 4.0 | 0.00 | 0.00 | 0.00 | 92 | 1008.9 |
| 20260508120727 | 68 | 13 | 1.0 | 6.0 | 0.00 | 0.00 | 0.00 | 93 | 1008.9 |
| 20260508115827 | 68 | 25 | 1.0 | 6.0 | 0.00 | 0.00 | 0.00 | 92 | 1008.9 |
| 20260508114927 | 69 | 26 | 2.0 | 9.0 | 0.00 | 0.00 | 0.00 | 93 | 1008.6 |
| 20260508114028 | 69 | 31 | 3.0 | 9.0 | 0.00 | 0.00 | 0.00 | 92 | 1008.5 |
| 20260508113127 | 69 | 46 | 0.0 | 5.0 | 0.00 | 0.00 | 0.00 | 92 | 1008.5 |
| 20260508111327 | 69 | 52 | 1.0 | 6.0 | 0.00 | 0.00 | 0.00 | 92 | 1008.3 |
| 20260508110427 | 69 | 53 | 2.0 | 5.0 | 0.00 | 0.00 | 0.00 | 92 | 1008.6 |
| 20260508105527 | 70 | 54 | 1.0 | 5.0 | 0.00 | 0.00 | 0.00 | 92 | 1008.6 |
| 20260508104628 | 70 | 55 | 0.0 | 3.0 | 0.00 | 0.00 | 0.00 | 92 | 1008.6 |
| 20260508103727 | 70 | 58 | 1.0 | 6.0 | 0.00 | 0.00 | 0.00 | 90 | 1008.1 |
| 20260508102828 | 70 | 61 | 1.0 | 5.0 | 0.00 | 0.00 | 0.00 | 90 | 1008.1 |
| 20260508101927 | 70 | 61 | 1.0 | 6.0 | 0.00 | 0.00 | 0.00 | 90 | 1008.3 |
| 20260508101027 | 70 | 68 | 1.0 | 5.0 | 0.00 | 0.00 | 0.00 | 89 | 1008.5 |
| 20260508095227 | 70 | 70 | 0.0 | 5.0 | 0.00 | 0.00 | 0.00 | 89 | 1007.7 |
| 20260508094327 | 70 | 71 | 0.0 | 4.0 | 0.00 | 0.00 | 0.00 | 88 | 1007.7 |
| 20260508093427 | 70 | 70 | 1.0 | 6.0 | 0.00 | 0.00 | 0.00 | 88 | 1008.1 |
| 20260508092527 | 70 | 70 | 1.0 | 8.0 | 0.00 | 0.00 | 0.00 | 87 | 1008.2 |